| time (UTC) | temp C | wind direction | speed KPH | gust KPH | rain 1hr cm | rain 24hr cm | rain mn cm | humidity % | barometer mb |
| 20260505040346 | 20 | 90 | 0.0 | 0.0 | 0.00 | 0.00 | 0.00 | 44 | 1007.2 |
| 20260505033313 | 21 | 270 | 0.0 | 3.2 | 0.00 | 0.00 | 0.00 | 41 | 1006.9 |
| 20260505030313 | 23 | 158 | 1.6 | 3.2 | 0.00 | 0.00 | 0.00 | 43 | 1006.7 |
| 20260505023243 | 25 | 135 | 1.6 | 3.2 | 0.00 | 0.00 | 0.00 | 35 | 1006.7 |
| 20260505020228 | 25 | 158 | 0.0 | 3.2 | 0.00 | 0.00 | 0.00 | 33 | 1006.8 |
| 20260505013213 | 26 | 158 | 1.6 | 6.4 | 0.00 | 0.00 | 0.00 | 32 | 1007.1 |
| 20260505010214 | 27 | 158 | 6.4 | 6.4 | 0.00 | 0.00 | 0.00 | 37 | 1007.2 |
| 20260505003143 | 27 | 158 | 6.4 | 6.4 | 0.00 | 0.00 | 0.00 | 37 | 1007.4 |
| 20260505000129 | 27 | 158 | 6.4 | 6.4 | 0.00 | 0.00 | 0.00 | 37 | 1007.5 |
| 20260504233128 | 27 | 158 | 6.4 | 8.0 | 0.00 | 0.00 | 0.00 | 37 | 1007.7 |
| 20260504230058 | 27 | 315 | 3.2 | 8.0 | 0.00 | 0.00 | 0.00 | 40 | 1008.0 |
| 20260504223043 | 27 | 180 | 3.2 | 6.4 | 0.00 | 0.00 | 0.00 | 40 | 1008.2 |
| 20260504220028 | 26 | 158 | 4.8 | 8.0 | 0.00 | 0.00 | 0.00 | 41 | 1008.5 |
| 20260504213013 | 27 | 202 | 3.2 | 9.7 | 0.00 | 0.00 | 0.00 | 38 | 1008.7 |
| 20260504205959 | 26 | 315 | 4.8 | 8.0 | 0.00 | 0.00 | 0.00 | 40 | 1008.9 |
| 20260504202944 | 27 | 315 | 3.2 | 6.4 | 0.00 | 0.00 | 0.00 | 38 | 1009.1 |
| 20260504195910 | 27 | 158 | 4.8 | 8.0 | 0.00 | 0.00 | 0.00 | 37 | 1009.3 |
| 20260504192900 | 26 | 112 | 3.2 | 8.0 | 0.00 | 0.00 | 0.00 | 38 | 1009.5 |
| 20260504185857 | 25 | 158 | 4.8 | 8.0 | 0.00 | 0.00 | 0.00 | 40 | 1009.6 |
| 20260504182843 | 25 | 338 | 4.8 | 8.0 | 0.00 | 0.00 | 0.00 | 34 | 1009.9 |
| 20260504175814 | 24 | 90 | 3.2 | 8.0 | 0.00 | 0.00 | 0.00 | 39 | 1009.9 |
| 20260504172813 | 23 | 0 | 4.8 | 8.0 | 0.00 | 0.00 | 0.00 | 42 | 1009.9 |